SB KEPS @ AMSAT $ORB07074.N 2Line Orbital Elements 07074.AMSAT
HR AMSAT ORBITAL ELEMENTS FOR AMATEUR SATELLITES IN NASA FORMAT FROM WA5QGD FORT WORTH,TX March 15, 2007 Send SUBSCRIBE KEPS/UNSUBSCRIBE KEPS to [email protected] only BID: ORB07074.N
DECODE 2-LINE ELSETS WITH THE FOLLOWING KEY: 1 AAAAAU 00 0 0 BBBBB.BBBBBBBB .CCCCCCCC 00000-0 00000-0 0 DDDZ 2 AAAAA EEE.EEEE FFF.FFFF GGGGGGG HHH.HHHH III.IIII JJ.JJJJJJJJKKKKKZ KEY: A-CATALOGNUM B-EPOCHTIME C-DECAY D-ELSETNUM E-INCLINATION F-RAAN G-ECCENTRICITY H-ARGPERIGEE I-MNANOM J-MNMOTION K-ORBITNUM Z-CHECKSUM
TO ALL RADIO AMATEURS BT
AO-07 1 07530U 74089B 07073.73049291 -.00000028 00000-0 10000-3 0 08292 2 07530 101.5291 114.4781 0012152 080.7313 279.5126 12.53572642479284 AO-10 1 14129U 83058B 07072.85808456 -.00000090 00000-0 10000-3 0 03685 2 14129 026.8191 287.1349 6053936 005.4374 359.0510 02.05870768178603 UO-11 1 14781U 84021B 07073.57743758 .00000221 00000-0 36915-4 0 03244 2 14781 098.1982 094.4187 0009918 112.1303 248.0935 14.79531019235743 RS-10/11 1 18129U 87054A 07074.68467332 .00000023 00000-0 87060-5 0 2468 2 18129 082.9274 127.3590 0013461 061.2049 299.0456 13.72785199988405 RS-15 1 23439U 94085A 07073.70336037 -.00000039 00000-0 10597-3 0 00554 2 23439 064.8185 159.7204 0162324 207.4090 151.8199 11.27551744503046 FO-29 1 24278U 96046B 07073.91322154 -.00000056 00000-0 -18628-4 0 04562 2 24278 098.5384 046.2626 0350729 327.7818 030.2317 13.52928043522158 SO-33 1 25509U 98061B 07073.54821390 .00000195 00000-0 26319-4 0 08858 2 25509 031.4348 040.8087 0355371 319.9884 037.5047 14.28151292437712 AO-40 1 26609U 00072B 07071.20371223 .00000083 00000-0 10000-3 0 8496 2 26609 004.8674 166.4482 7994392 286.3851 006.6438 01.25587116 29229 VO-52 1 28650U 05017B 07074.62078156 .00000043 00000-0 12208-4 0 5795 2 28650 097.8383 147.4037 0026903 196.0201 164.0217 14.81277866100569 PO-63 1 29712U 07001D 07074.65285894 .00000609 00000-0 88129-4 0 1904 2 29712 097.9316 135.0767 0015518 074.4110 285.8814 14.79589063 9506 AO-16 1 20439U 90005D 07074.51515004 .00000000 00000-0 15116-4 0 9887 2 20439 098.1947 074.2458 0011763 103.2186 257.0319 14.31752841895147 LO-19 1 20442U 90005G 07074.56932973 -.00000010 00000-0 11336-4 0 9156 2 20442 098.1829 083.7568 0012826 102.8943 257.3664 14.31993870895295 AO-27 1 22825U 93061C 07074.45588293 .00000030 00000-0 28090-4 0 6386 2 22825 098.3198 048.4716 0008130 173.1450 186.9853 14.29202112702106 IO-26 1 22826U 93061D 07073.46935533 -.00000004 00000-0 14562-4 0 03355 2 22826 098.3143 048.6409 0008709 174.0776 186.0520 14.29447282702045 PO-28 1 22829U 93061G 07073.47164814 .00000028 00000-0 26917-4 0 06147 2 22829 098.3023 049.8221 0009941 148.0539 212.1254 14.30146322702270 GO-32 1 25397U 98043D 07073.66620212 .00000101 00000-0 63323-4 0 2538 2 25397 098.4274 124.9624 0001763 120.5171 239.6189 14.23122161450712 MO-46 1 26548U 00057D 07074.59314640 .00000129 00000-0 33864-4 0 7467 2 26548 064.5564 112.2090 0026515 209.5813 150.3806 14.83110807349652 NO-44 1 26931U 01043C 07073.07416748 -.00000244 00000-0 -62954-4 0 05430 2 26931 067.0537 032.4934 0006446 278.6645 081.3698 14.29474755284506 SO-50 1 27607U 02058C 07073.36908151 .00000094 00000-0 36757-4 0 02658 2 27607 064.5598 012.9057 0043351 029.6968 330.6602 14.71236843227179 CO-55 1 27844U 03031E 07073.57779209 .00000046 00000-0 41643-4 0 9829 2 27844 098.7212 083.1642 0010312 009.2415 350.8957 14.20496984192048 CO-57 1 27848U 03031J 07073.58635777 .00000018 00000-0 28629-4 0 9441 2 27848 098.7206 082.4030 0010081 012.4008 347.7411 14.20317833192028 AO-51 1 28375U 04025K 07074.59199730 .00000016 00000-0 17310-4 0 7707 2 28375 098.1265 118.6821 0084658 105.5255 255.5295 14.40558605142232 CO-56 1 28941U 06005C 07074.70163114 .00016366 25609-5 18406-3 0 3788 2 28941 098.1416 125.6104 0239601 243.0757 114.5808 15.35756583 59068 HO-59 1 29484U 06041F 07073.83659419 .00028020 28107-5 22243-3 0 2297 2 29484 098.3001 109.7598 0234121 242.3454 115.4062 15.43570649 26489 NO-60 1 29661U 06055C 07073.72284727 .00095325 14577-4 28696-3 0 1039 2 29661 051.6393 226.2940 0011083 330.8066 029.2347 15.92089418 13296 NO-61 1 29664U 06055F 07074.76448381 .00029631 00000-0 12029-3 0 845 2 29664 051.6334 222.7174 0014435 337.2383 022.7969 15.85829036 13301 NOAA-10 1 16969U 86073A 07073.66687511 -.00000065 00000-0 -83600-5 0 05869 2 16969 098.7526 090.7656 0013284 082.8284 277.4412 14.27319073065749 NOAA-11 1 19531U 88089A 07073.29767320 .00000232 00000-0 14280-3 0 05840 2 19531 098.8098 163.6466 0010963 302.9051 057.1094 14.14838965952735 NOAA-12 1 21263U 91032A 07073.54774976 -.00000173 00000-0 -54387-4 0 00765 2 21263 098.7514 070.9562 0013083 025.8162 334.3664 14.25523346822767 MET-3/5 1 21655U 91056A 07073.97014879 .00000051 00000-0 10000-3 0 02636 2 21655 082.5467 069.5026 0014604 082.8843 277.3939 13.17010112749006 MET-2/21 1 22782U 93055A 07073.63635714 -.00000052 00000-0 -60323-4 0 07732 2 22782 082.5462 116.9346 0023568 138.5623 221.7333 13.83615375683440 OKEAN-4 1 23317U 94066A 07073.95649852 .00000109 00000-0 10541-4 0 02118 2 23317 082.5403 024.4382 0021289 199.5648 160.4762 14.82476899670093 NOAA-14 1 23455U 94089A 07073.87799475 .00000179 00000-0 11885-3 0 05632 2 23455 098.9990 139.5224 0009255 011.4966 348.6432 14.13705177629316 SICH-1 1 23657U 95046A 07073.93250042 .00000031 00000-0 87078-6 0 00147 2 23657 082.5304 165.3918 0023773 189.2165 170.8618 14.81460046622076 NOAA-15 1 25338U 98030A 07073.56759721 -.00000080 00000-0 -16086-4 0 09221 2 25338 098.5305 072.9269 0009908 308.5417 051.4862 14.24629821459218 RESURS 1 25394U 98043A 07073.78148250 -.00000002 00000-0 17173-4 0 5946 2 25394 098.4556 132.0007 0002312 091.6791 268.4652 14.24129815450915 FENGYUN1 1 25730U 99025A 07074.72589046 .00000440 00000-0 28546-3 0 112 2 25730 098.6853 062.1547 0022927 031.2184 329.0335 14.07442392404317 OKEAN-0 1 25860U 99039A 07073.56638906 .00000074 00000-0 18545-4 0 13 2 25860 097.7324 080.2363 0001094 040.9725 319.1558 14.73436496411564 NOAA-16 1 26536U 00055A 07073.61905105 .00000377 00000-0 22932-3 0 03347 2 26536 099.1071 048.9584 0011237 080.3932 279.8507 14.12412941333756 NOAA-17 1 27453U 02032A 07073.86394416 .00000149 00000-0 83721-4 0 03450 2 27453 098.5882 145.3977 0011557 013.1525 346.9938 14.23861485245291 NOAA-18 1 28654U 05018A 07073.87439840 .00000051 00000-0 52418-4 0 08831 2 28654 098.8197 016.7803 0014323 172.4658 187.6694 14.11045594093557 HUBBLE 1 20580U 90037B 07073.80772393 .00000429 00000-0 20460-4 0 08462 2 20580 028.4663 085.5329 0003845 172.7418 187.3222 15.00205375725779 UARS 1 21701U 91063B 07073.98058990 .00008501 00000-0 14607-3 0 00306 2 21701 056.9764 002.4718 0095718 014.1770 346.1938 15.47110634851169 PO-34 1 25520U 98064B 07073.96525682 .00000613 00000-0 20532-4 0 06950 2 25520 028.4606 019.3423 0005278 306.4287 053.5813 15.16946175463201 ISS 1 25544U 98067A 07074.98183145 .00021533 00000-0 11837-3 0 8285 2 25544 051.6340 225.5444 0020911 323.2192 134.7978 15.79387477476051 OO-38 1 26063U 00004C 07073.53691932 -.00000006 00000-0 18207-4 0 08635 2 26063 100.2234 058.6892 0037261 066.1761 294.3322 14.35798531373470 NO-45 1 26932U 01043D 07073.98361396 -.00000075 00000-0 29816-5 0 05497 2 26932 067.0514 029.9025 0005213 290.6964 069.3575 14.29550915284674 UWE-1 1 28892U 05043C 07074.63057011 .00000187 00000-0 49004-4 0 7009 2 28892 098.1406 333.0845 0018326 046.0076 314.2659 14.59475485 73561 CO-58 1 28895U 05043F 07073.30978624 .00000069 00000-0 24271-4 0 06790 2 28895 098.1419 331.9649 0018874 050.5903 309.6945 14.59524042073250 NCUBE2 1 28897U 05043H 07073.66927008 .00000158 00000-0 42798-4 0 02048 2 28897 098.1418 332.2833 0018335 050.0646 310.2158 14.59684808065589 NMARS 1 29662U 06055D 07074.62074426 .00115666 16392-4 30196-3 0 1242 2 29662 051.6364 221.0063 0011493 331.2448 028.7028 15.94653083 13330 FCAL 1 29667U 06055J 07073.90512721 .00019047 00000-0 82852-4 0 00980 2 29667 051.6336 227.4883 0015508 337.6144 022.4183 15.84685453013033 FALCON 1 30776U 07006E 07073.97344187 .00000269 00000-0 22899-4 0 00112 2 30776 035.4336 063.7700 0001576 338.0061 022.0599 15.02652725000879 /EX
participants (1)
-
Ray Hoad